ROMMA est une association bénévole à but non lucratif. Votre soutien est indispensable : ADHERER à ROMMA ou FAIRE un DON

Voiron - (38, Isère)

Voironnais (300 m)   Longitude: 05° 35' E   Latitude: 45° 23' N Station partenaire n°109
 

Détail journalier du     <<     >>

Température Precipitation Humidité Pression Vent Dir Rafale Dir. rafale Ensol.
Heure (°C) (mm) (%) (hPa) (km/h) (km/h) (min)
01:00 11.306510252NNO10NNO0
02:00 10.6068102503NNO0
03:00 10.3070102503NNO0
04:00 10.307010242NNO3NNO0
05:00 10.107110242NNE5NNE0
06:00 9.407410242ESE6NO0
07:00 8.907510241O5O0
08:00 7.807710232ONO5ONO0
09:00 9.307310241ESE6NNO0
10:00 10.907010231ESE6SE0
11:00 11.706510236SE11SSO0
12:00 12.106110239NNO31NNO0
13:00 12.1058102310N31NNO0
14:00 11.6061102312N27NNO0
15:00 11.706310228N21N0
16:00 10.407410226ENE21E0
17:00 10.107810236NE18E0
18:00 9.807910233ENE16ENE0
19:00 9.708110231NNE6NNE0
20:00 9.308410241NE6NE0
21:00 9.308310242NE6NO0
22:00 9.40.28010243NNE13ENE0
23:00 9.608010245N15E0
minuit 9.608010248N23N0

Graphique du 01-03-2019

 

Serveur OMMA